Time,TemperatureF,DewpointF,PressureIn,WindDirection,WindDirectionDegrees,WindSpeedMPH,WindSpeedGustMPH,Humidity,HourlyPrecipIn,Conditions,Clouds,dailyrainin,SolarRadiationWatts/m^2,SoftwareType,DateUTC
2013-05-03 00:03:00,73.7,26.0,30.28,West,265,0.0,-999.0,17,-99.99,,,0.00,0,weatherlink.com 1.10,2013-05-03 07:03:00,
2013-05-03 00:18:00,71.3,35.0,30.28,West,264,0.0,-999.0,26,-99.99,,,0.00,0,weatherlink.com 1.10,2013-05-03 07:18:00,
2013-05-03 00:33:00,69.1,33.0,30.28,West,265,0.0,-999.0,26,-99.99,,,0.00,0,weatherlink.com 1.10,2013-05-03 07:33:00,
2013-05-03 00:48:00,68.2,32.0,30.28,West,265,0.0,-999.0,26,-99.99,,,0.00,0,weatherlink.com 1.10,2013-05-03 07:48:00,
2013-05-03 01:03:00,68.0,33.0,30.27,West,265,0.0,-999.0,27,-99.99,,,0.00,0,weatherlink.com 1.10,2013-05-03 08:03:00,
2013-05-03 01:18:00,70.1,26.0,30.27,West,265,0.0,-999.0,19,-99.99,,,0.00,0,weatherlink.com 1.10,2013-05-03 08:18:00,
2013-05-03 01:33:00,71.7,25.0,30.27,West,265,0.0,-999.0,17,-99.99,,,0.00,0,weatherlink.com 1.10,2013-05-03 08:33:00,
2013-05-03 01:48:00,70.3,36.0,30.26,West,265,0.0,-999.0,28,-99.99,,,0.00,0,weatherlink.com 1.10,2013-05-03 08:48:00,
2013-05-03 02:03:00,67.7,31.0,30.26,West,265,0.0,-999.0,25,-99.99,,,0.00,0,weatherlink.com 1.10,2013-05-03 09:03:00,
2013-05-03 02:18:00,67.5,32.0,30.25,West,265,0.0,-999.0,27,-99.99,,,0.00,0,weatherlink.com 1.10,2013-05-03 09:18:00,
2013-05-03 02:33:00,67.2,30.0,30.25,West,265,0.0,-999.0,25,-99.99,,,0.00,0,weatherlink.com 1.10,2013-05-03 09:33:00,
2013-05-03 02:48:00,67.0,30.0,30.25,West,265,0.0,-999.0,25,-99.99,,,0.00,0,weatherlink.com 1.10,2013-05-03 09:48:00,
2013-05-03 03:03:00,66.7,30.0,30.25,West,265,0.0,-999.0,25,-99.99,,,0.00,0,weatherlink.com 1.10,2013-05-03 10:03:00,
2013-05-03 03:18:00,66.3,29.0,30.24,West,265,0.0,-999.0,25,-99.99,,,0.00,0,weatherlink.com 1.10,2013-05-03 10:18:00,
2013-05-03 03:33:00,66.0,29.0,30.24,West,265,0.0,-999.0,25,-99.99,,,0.00,0,weatherlink.com 1.10,2013-05-03 10:33:00,
2013-05-03 03:49:00,65.9,29.0,30.24,West,265,0.0,-999.0,25,-99.99,,,0.00,0,weatherlink.com 1.10,2013-05-03 10:49:00,
2013-05-03 04:04:00,65.6,31.0,30.23,West,265,0.0,-999.0,27,-99.99,,,0.00,0,weatherlink.com 1.10,2013-05-03 11:04:00,
2013-05-03 04:19:00,64.6,31.0,30.23,West,265,0.0,-999.0,29,-99.99,,,0.00,0,weatherlink.com 1.10,2013-05-03 11:19:00,
2013-05-03 04:34:00,64.1,31.0,30.23,West,265,0.0,-999.0,29,-99.99,,,0.00,0,weatherlink.com 1.10,2013-05-03 11:34:00,
2013-05-03 04:49:00,64.5,28.0,30.23,West,265,0.0,-999.0,25,-99.99,,,0.00,0,weatherlink.com 1.10,2013-05-03 11:49:00,
2013-05-03 05:04:00,64.8,29.0,30.23,West,265,0.0,-999.0,26,-99.99,,,0.00,0,weatherlink.com 1.10,2013-05-03 12:04:00,
2013-05-03 05:19:00,64.2,29.0,30.22,West,265,0.0,-999.0,27,-99.99,,,0.00,0,weatherlink.com 1.10,2013-05-03 12:19:00,
2013-05-03 05:34:00,63.6,29.0,30.22,West,265,0.0,-999.0,27,-99.99,,,0.00,0,weatherlink.com 1.10,2013-05-03 12:34:00,
2013-05-03 05:49:00,63.2,28.0,30.22,West,265,0.0,-999.0,26,-99.99,,,0.00,5,weatherlink.com 1.10,2013-05-03 12:49:00,
2013-05-03 06:04:00,63.6,26.0,30.22,West,265,0.0,-999.0,24,-99.99,,,0.00,12,weatherlink.com 1.10,2013-05-03 13:04:00,
2013-05-03 06:19:00,64.0,28.0,30.23,West,265,0.0,-999.0,26,-99.99,,,0.00,37,weatherlink.com 1.10,2013-05-03 13:19:00,
2013-05-03 06:34:00,65.2,28.0,30.23,West,265,0.0,-999.0,25,-99.99,,,0.00,72,weatherlink.com 1.10,2013-05-03 13:34:00,
2013-05-03 06:49:00,66.3,29.0,30.23,West,264,0.0,-999.0,25,-99.99,,,0.00,118,weatherlink.com 1.10,2013-05-03 13:49:00,
2013-05-03 07:04:00,67.4,32.0,30.23,West,264,0.0,-999.0,27,-99.99,,,0.00,172,weatherlink.com 1.10,2013-05-03 14:04:00,
2013-05-03 07:19:00,69.3,35.0,30.23,West,265,0.0,-999.0,28,-99.99,,,0.00,230,weatherlink.com 1.10,2013-05-03 14:19:00,
2013-05-03 07:34:00,71.3,34.0,30.23,West,265,0.0,-999.0,25,-99.99,,,0.00,214,weatherlink.com 1.10,2013-05-03 14:34:00,
2013-05-03 07:49:00,73.2,36.0,30.22,West,265,0.0,-999.0,26,-99.99,,,0.00,306,weatherlink.com 1.10,2013-05-03 14:49:00,
2013-05-03 08:04:00,74.5,37.0,30.22,West,263,0.0,-999.0,26,-99.99,,,0.00,360,weatherlink.com 1.10,2013-05-03 15:04:00,
2013-05-03 08:19:00,76.1,37.0,30.22,West,263,0.0,-999.0,24,-99.99,,,0.00,418,weatherlink.com 1.10,2013-05-03 15:19:00,
2013-05-03 08:34:00,77.9,39.0,30.22,West,263,0.0,-999.0,25,-99.99,,,0.00,478,weatherlink.com 1.10,2013-05-03 15:34:00,
2013-05-03 08:49:00,80.8,37.0,30.22,West,263,0.0,-999.0,21,-99.99,,,0.00,522,weatherlink.com 1.10,2013-05-03 15:49:00,
2013-05-03 09:05:00,83.0,38.0,30.22,West,263,0.0,-999.0,20,-99.99,,,0.00,557,weatherlink.com 1.10,2013-05-03 16:05:00,
2013-05-03 09:20:00,84.9,42.0,30.22,West,263,0.0,-999.0,22,-99.99,,,0.00,621,weatherlink.com 1.10,2013-05-03 16:20:00,
2013-05-03 09:35:00,85.5,41.0,30.21,West,263,0.0,-999.0,21,-99.99,,,0.00,540,weatherlink.com 1.10,2013-05-03 16:35:00,
2013-05-03 09:50:00,86.1,38.0,30.21,West,263,0.0,-999.0,18,-99.99,,,0.00,633,weatherlink.com 1.10,2013-05-03 16:50:00,
2013-05-03 10:05:00,88.1,35.0,30.21,West,263,0.0,-999.0,15,-99.99,,,0.00,682,weatherlink.com 1.10,2013-05-03 17:05:00,
2013-05-03 10:20:00,89.4,32.0,30.21,West,263,1.0,-999.0,13,-99.99,,,0.00,710,weatherlink.com 1.10,2013-05-03 17:20:00,
2013-05-03 10:35:00,90.5,29.0,30.21,WSW,256,0.0,-999.0,11,-99.99,,,0.00,770,weatherlink.com 1.10,2013-05-03 17:35:00,
2013-05-03 10:50:00,90.6,31.0,30.20,South,190,1.0,-999.0,12,-99.99,,,0.00,816,weatherlink.com 1.10,2013-05-03 17:50:00,
2013-05-03 11:05:00,90.5,29.0,30.20,South,170,0.0,-999.0,11,-99.99,,,0.00,800,weatherlink.com 1.10,2013-05-03 18:05:00,
2013-05-03 11:20:00,91.3,27.0,30.19,SSE,161,0.0,-999.0,10,-99.99,,,0.00,868,weatherlink.com 1.10,2013-05-03 18:20:00,
2013-05-03 11:35:00,91.3,32.0,30.18,SSE,157,0.0,-999.0,12,-99.99,,,0.00,884,weatherlink.com 1.10,2013-05-03 18:35:00,
2013-05-03 11:50:00,91.4,30.0,30.18,South,175,6.0,-999.0,11,-99.99,,,0.00,826,weatherlink.com 1.10,2013-05-03 18:50:00,
2013-05-03 12:05:00,91.9,30.0,30.18,South,171,6.0,-999.0,11,-99.99,,,0.00,872,weatherlink.com 1.10,2013-05-03 19:05:00,
2013-05-03 12:20:00,92.4,33.0,30.17,SSE,161,4.0,-999.0,12,-99.99,,,0.00,930,weatherlink.com 1.10,2013-05-03 19:20:00,
2013-05-03 12:35:00,92.6,26.0,30.17,South,173,6.0,-999.0,9,-99.99,,,0.00,937,weatherlink.com 1.10,2013-05-03 19:35:00,
2013-05-03 12:50:00,93.0,26.0,30.16,South,169,1.0,-999.0,9,-99.99,,,0.00,861,weatherlink.com 1.10,2013-05-03 19:50:00,
2013-05-03 13:05:00,93.4,31.0,30.14,SSE,161,7.0,-999.0,11,-99.99,,,0.00,856,weatherlink.com 1.10,2013-05-03 20:05:00,
2013-05-03 13:20:00,93.8,29.0,30.13,SE,144,0.0,-999.0,10,-99.99,,,0.00,828,weatherlink.com 1.10,2013-05-03 20:20:00,
2013-05-03 13:35:00,93.8,29.0,30.12,South,182,3.0,-999.0,10,-99.99,,,0.00,816,weatherlink.com 1.10,2013-05-03 20:35:00,
2013-05-03 13:51:00,94.1,27.0,30.12,South,184,0.0,-999.0,9,-99.99,,,0.00,826,weatherlink.com 1.10,2013-05-03 20:51:00,
2013-05-03 14:06:00,94.7,28.0,30.11,SSE,164,4.0,-999.0,9,-99.99,,,0.00,914,weatherlink.com 1.10,2013-05-03 21:06:00,
2013-05-03 14:21:00,95.8,31.0,30.10,SSE,166,0.0,-999.0,10,-99.99,,,0.00,780,weatherlink.com 1.10,2013-05-03 21:21:00,
2013-05-03 14:36:00,94.9,28.0,30.09,South,172,6.0,-999.0,9,-99.99,,,0.00,708,weatherlink.com 1.10,2013-05-03 21:36:00,
2013-05-03 14:51:00,95.0,30.0,30.08,SSE,161,0.0,-999.0,10,-99.99,,,0.00,659,weatherlink.com 1.10,2013-05-03 21:51:00,
2013-05-03 15:06:00,95.0,28.0,30.07,South,174,0.0,-999.0,9,-99.99,,,0.00,735,weatherlink.com 1.10,2013-05-03 22:06:00,
2013-05-03 15:21:00,95.6,31.0,30.06,SSE,159,5.0,-999.0,10,-99.99,,,0.00,715,weatherlink.com 1.10,2013-05-03 22:21:00,
2013-05-03 15:36:00,95.6,31.0,30.05,SSE,156,0.0,-999.0,10,-99.99,,,0.00,671,weatherlink.com 1.10,2013-05-03 22:36:00,
2013-05-03 15:51:00,95.9,31.0,30.04,SSE,150,0.0,-999.0,10,-99.99,,,0.00,624,weatherlink.com 1.10,2013-05-03 22:51:00,
2013-05-03 16:06:00,95.9,28.0,30.03,SSE,156,0.0,-999.0,9,-99.99,,,0.00,587,weatherlink.com 1.10,2013-05-03 23:06:00,
2013-05-03 16:21:00,95.8,28.0,30.02,SE,140,5.0,-999.0,9,-99.99,,,0.00,545,weatherlink.com 1.10,2013-05-03 23:21:00,
2013-05-03 16:36:00,95.4,25.0,30.02,SE,142,2.0,-999.0,8,-99.99,,,0.00,499,weatherlink.com 1.10,2013-05-03 23:36:00,
2013-05-03 16:51:00,94.7,30.0,30.02,SE,133,1.0,-999.0,10,-99.99,,,0.00,315,weatherlink.com 1.10,2013-05-03 23:51:00,
2013-05-03 17:06:00,94.7,32.0,30.02,SE,135,5.0,-999.0,11,-99.99,,,0.00,404,weatherlink.com 1.10,2013-05-04 00:06:00,
2013-05-03 17:21:00,93.7,32.0,30.01,SE,130,0.0,-999.0,11,-99.99,,,0.00,332,weatherlink.com 1.10,2013-05-04 00:21:00,
2013-05-03 17:36:00,93.6,32.0,30.01,SE,128,2.0,-999.0,11,-99.99,,,0.00,318,weatherlink.com 1.10,2013-05-04 00:36:00,
2013-05-03 17:51:00,93.1,29.0,30.01,SE,134,0.0,-999.0,10,-99.99,,,0.00,260,weatherlink.com 1.10,2013-05-04 00:51:00,
2013-05-03 18:06:00,92.9,31.0,30.00,SSE,157,2.0,-999.0,11,-99.99,,,0.00,209,weatherlink.com 1.10,2013-05-04 01:06:00,
2013-05-03 18:21:00,92.0,30.0,30.00,SSE,156,0.0,-999.0,11,-99.99,,,0.00,144,weatherlink.com 1.10,2013-05-04 01:21:00,
2013-05-03 18:36:00,91.0,30.0,30.00,South,169,2.0,-999.0,11,-99.99,,,0.00,42,weatherlink.com 1.10,2013-05-04 01:36:00,
2013-05-03 18:51:00,89.9,31.0,29.99,SSE,161,0.0,-999.0,12,-99.99,,,0.00,21,weatherlink.com 1.10,2013-05-04 01:51:00,
2013-05-03 19:06:00,88.9,34.0,29.99,SSE,164,0.0,-999.0,14,-99.99,,,0.00,18,weatherlink.com 1.10,2013-05-04 02:06:00,
2013-05-03 19:21:00,87.9,35.0,30.00,SSE,163,0.0,-999.0,15,-99.99,,,0.00,9,weatherlink.com 1.10,2013-05-04 02:21:00,
2013-05-03 19:36:00,86.9,34.0,30.00,South,186,0.0,-999.0,15,-99.99,,,0.00,0,weatherlink.com 1.10,2013-05-04 02:36:00,
2013-05-03 19:51:00,86.1,33.0,30.00,South,186,0.0,-999.0,15,-99.99,,,0.00,0,weatherlink.com 1.10,2013-05-04 02:51:00,
2013-05-03 20:06:00,85.0,34.0,30.00,South,186,0.0,-999.0,16,-99.99,,,0.00,0,weatherlink.com 1.10,2013-05-04 03:06:00,
2013-05-03 20:21:00,83.9,35.0,30.00,South,186,0.0,-999.0,17,-99.99,,,0.00,0,weatherlink.com 1.10,2013-05-04 03:21:00,
2013-05-03 20:36:00,83.1,35.0,30.00,South,186,0.0,-999.0,18,-99.99,,,0.00,0,weatherlink.com 1.10,2013-05-04 03:36:00,
2013-05-03 20:51:00,81.2,36.0,30.01,South,186,0.0,-999.0,20,-99.99,,,0.00,0,weatherlink.com 1.10,2013-05-04 03:51:00,
2013-05-03 21:06:00,79.6,38.0,30.01,South,186,0.0,-999.0,22,-99.99,,,0.00,0,weatherlink.com 1.10,2013-05-04 04:06:00,
2013-05-03 21:21:00,78.4,41.0,30.02,South,186,0.0,-999.0,26,-99.99,,,0.00,0,weatherlink.com 1.10,2013-05-04 04:21:00,
2013-05-03 21:36:00,77.1,44.0,30.02,South,186,0.0,-999.0,31,-99.99,,,0.00,0,weatherlink.com 1.10,2013-05-04 04:36:00,
2013-05-03 21:51:00,76.4,42.0,30.02,South,186,0.0,-999.0,29,-99.99,,,0.00,0,weatherlink.com 1.10,2013-05-04 04:51:00,
2013-05-03 22:06:00,75.9,41.0,30.02,South,186,0.0,-999.0,29,-99.99,,,0.00,0,weatherlink.com 1.10,2013-05-04 05:06:00,
2013-05-03 22:21:00,75.6,41.0,30.02,South,186,0.0,-999.0,29,-99.99,,,0.00,0,weatherlink.com 1.10,2013-05-04 05:21:00,
2013-05-03 22:36:00,74.8,43.0,30.02,South,186,0.0,-999.0,32,-99.99,,,0.00,0,weatherlink.com 1.10,2013-05-04 05:36:00,
2013-05-03 22:51:00,74.5,40.0,30.01,South,186,0.0,-999.0,29,-99.99,,,0.00,0,weatherlink.com 1.10,2013-05-04 05:51:00,
2013-05-03 23:06:00,74.2,42.0,30.01,South,186,0.0,-999.0,31,-99.99,,,0.00,0,weatherlink.com 1.10,2013-05-04 06:06:00,
2013-05-03 23:21:00,73.4,41.0,30.01,South,186,0.0,-999.0,31,-99.99,,,0.00,0,weatherlink.com 1.10,2013-05-04 06:21:00,
2013-05-03 23:36:00,73.5,42.0,30.01,South,186,0.0,-999.0,32,-99.99,,,0.00,0,weatherlink.com 1.10,2013-05-04 06:36:00,
2013-05-03 23:51:00,72.8,41.0,30.01,South,186,0.0,-999.0,32,-99.99,,,0.00,0,weatherlink.com 1.10,2013-05-04 06:51:00,